Showing default

COSMOS 2508, 40921

Orbit data source: Space-Track

COSMOS 2508, 40921 is a payload satellite owned by VVKO VKS (CIS) in LEO that was launched on Wed, 23 Sep 2015 UTC via an ROKOT launch vehicle from the Plesetsk Missile And Space Complex (PKMTR). Payload-class satellites include a variety of spacecraft equipped with specific instruments for various scientific and technological missions. These include communications satellites like Starlink; space stations such as the ISS; scientific satellites like the Hubble; Earth observation satellites from companies like Planet Labs, Umbra, and HawkEye 360; GPS; miniature CubeSats for education and research; and military/defense satellites.

Loading next visibility...
Identifier
40921, 2015-050B
Orbit
LEO
Country
Flag of CISCIS
Related business
Manufacturer
Resehetnev ISS
Mission
Operational Defense Communications
Bus & Motor
STRELA-3M, Unknown motor
Mass
280 kg wet, 280 kg dry
Launch date (UTC)
2015-09-23 (10 years ago)
Launch vehicle
ROKOT
Launch site
Plesetsk Missile And Space Complex (PKMTR)
Object type
Payload
Rocket body
Debris
Shape & HBR
Cyl + 1 Ant, 3.5 m
Radar Cross Section
1.583 m², Large (>1 m²)

Expand to show TLE details & history
Last TLE update: 22 hours ago

TLE from 22 hours ago
0 COSMOS 2508
1 40921U 15050B   25312.87083731  .00000047  00000-0  26992-3 0  9999
2 40921  82.4900 215.3910 0013944 140.2638 219.9466 12.42904020459477
Epoch: 2025-11-08T20:54Z
TLE epoch observation values (Epoch: 2025-11-08T20:54:00.343Z)
Latitude
Longitude
-146.40467°
Altitude
1,505.44 km
Speed
7.108 km/s
True Right ascension
14h 21m 33s
True Declination
0° 00' 00"
Sunlit
Object was in daylight at epoch
Visualization orbit readout
Latitude
Unknown
Longitude
Unknown
Altitude
Unknown
Speed
Unknown
Apparent Right ascension
Unknown
Apparent Declination
Unknown
Sunlit
N/A
Visualization observer readout
Local Sidereal Time
15:22:35
Azimuth
Unknown
Elevation
Unknown
Doppler factor
Unknown
Orbital elements
Apogee altitude
1,502.642 km
Perigee altitude
1,480.695 km
Semi-major axis
7,869.805 km
Eccentricity
0.00139
Inclination
82.49°
RAAN
215.391°
Arg. of periapsis
140.2638°
True anomaly
219.84414°
Mean anomaly
219.9466°
Eccentric anomaly
219.89536°
Mean motion
3.10883 °/min
Orbital period
115.8 mins
BSTAR
0.00026992
Loading maneuver chart data...
Computing Atmospheric mass density...
Loading historical data...
Loading historical data...
Loading historical data...
Loading historical data...
Loading historical data...
Loading historical data...
Loading historical data...
Other satellites on launch #50 in the year 2015 (2015-09-23 UTC)

Documentation

Showing up to 5 results
|